TimeEST,TemperatureF,Dew PointF,Humidity,Sea Level PressureIn,VisibilityMPH,Wind Direction,Wind SpeedMPH,Gust SpeedMPH,PrecipitationIn,Events,Conditions,WindDirDegrees,DateUTC
12:15 AM,14.4,10.6,85,30.40,5.0,ESE,4.6,-,N/A,Snow,Light Snow,110,2013-01-25 05:15:00
12:35 AM,14.7,11.1,86,30.38,5.0,Calm,Calm,-,N/A,Snow,Light Snow,0,2013-01-25 05:35:00
12:56 AM,14.9,11.7,87,30.36,7.0,ESE,4.6,-,N/A,Snow,Light Snow,110,2013-01-25 05:56:00
1:15 AM,15.6,11.8,85,30.34,7.0,South,3.5,-,N/A,Snow,Light Snow,170,2013-01-25 06:15:00
1:36 AM,16.2,11.8,83,30.32,10.0,South,4.6,-,N/A,Snow,Light Snow,170,2013-01-25 06:36:00
1:55 AM,16.2,12.2,84,30.31,3.0,South,4.6,-,N/A,Snow,Light Snow,170,2013-01-25 06:55:00
2:15 AM,16.3,12.9,86,30.31,3.0,South,5.8,-,N/A,Snow,Light Snow,180,2013-01-25 07:15:00
2:35 AM,16.3,13.8,90,30.30,2.0,SSE,3.5,-,N/A,Snow,Light Snow,160,2013-01-25 07:35:00
2:55 AM,16.5,14.2,90,30.29,2.5,SSE,4.6,-,N/A,Snow,Light Snow,150,2013-01-25 07:55:00
3:16 AM,17.1,14.7,91,30.28,2.0,SSE,5.8,-,N/A,Snow,Light Snow,160,2013-01-25 08:16:00
3:35 AM,16.7,14.4,91,30.27,2.0,SSE,8.1,-,N/A,Snow,Light Snow,160,2013-01-25 08:35:00
3:55 AM,16.7,14.4,91,30.25,1.5,South,6.9,-,N/A,Snow,Light Snow,170,2013-01-25 08:55:00
4:15 AM,16.7,14.7,92,30.24,1.2,SSE,6.9,-,N/A,Snow,Light Snow,150,2013-01-25 09:15:00
4:35 AM,17.4,15.4,92,30.23,1.5,South,4.6,-,N/A,Snow,Light Snow,170,2013-01-25 09:35:00
4:56 AM,17.6,15.3,91,30.21,1.8,South,6.9,-,N/A,Snow,Light Snow,170,2013-01-25 09:56:00
5:15 AM,17.6,15.3,91,30.20,1.5,SSE,11.5,16.1,N/A,Snow,Light Snow,160,2013-01-25 10:15:00
5:35 AM,17.6,15.3,91,30.19,1.8,SSE,9.2,-,N/A,Snow,Light Snow,160,2013-01-25 10:35:00
5:56 AM,17.4,14.9,90,30.18,1.2,SSE,10.4,16.1,N/A,Snow,Light Snow,150,2013-01-25 10:56:00
6:15 AM,17.6,15.4,91,30.17,1.0,SSE,9.2,-,N/A,Snow,Snow,150,2013-01-25 11:15:00
6:35 AM,17.6,15.6,92,30.16,1.0,SSE,5.8,-,N/A,Snow,Snow,160,2013-01-25 11:35:00
6:56 AM,18.1,15.8,91,30.15,1.2,South,10.4,18.4,N/A,Snow,Light Snow,170,2013-01-25 11:56:00
7:15 AM,18.1,15.8,91,30.13,1.2,SSE,11.5,16.1,N/A,Snow,Light Snow,160,2013-01-25 12:15:00
7:35 AM,18.1,15.8,91,30.13,1.2,SSE,9.2,17.3,N/A,Snow,Light Snow,150,2013-01-25 12:35:00
7:56 AM,18.1,15.8,91,30.11,1.2,SSE,6.9,-,N/A,Snow,Snow,150,2013-01-25 12:56:00
8:35 AM,18.5,16.2,91,30.09,1.0,SSE,10.4,17.3,N/A,Snow,Light Snow,150,2013-01-25 13:35:00
8:55 AM,18.5,16.3,91,30.08,1.5,SE,5.8,-,N/A,Snow,Light Snow,130,2013-01-25 13:55:00
9:15 AM,18.5,16.3,91,30.07,1.2,SE,9.2,17.3,N/A,Snow,Light Snow,140,2013-01-25 14:15:00
9:36 AM,18.5,16.2,91,30.06,1.0,SSE,12.7,20.7,N/A,Snow,Light Snow,150,2013-01-25 14:36:00
9:55 AM,18.5,15.8,89,30.06,1.2,SSE,10.4,16.1,N/A,Snow,Light Snow,150,2013-01-25 14:55:00
10:15 AM,18.9,16.2,89,30.05,1.0,SE,9.2,18.4,N/A,Snow,Light Snow,140,2013-01-25 15:15:00
10:35 AM,19.0,16.7,91,30.03,0.8,SE,9.2,17.3,N/A,Snow,Light Snow,140,2013-01-25 15:35:00
10:55 AM,19.4,17.2,91,30.03,0.8,SSE,9.2,19.6,N/A,Snow,Light Snow,150,2013-01-25 15:55:00
11:16 AM,19.4,17.2,91,30.02,0.8,SSE,8.1,-,N/A,Snow,Light Snow,150,2013-01-25 16:16:00
11:35 AM,19.6,17.4,91,30.01,0.5,SE,9.2,16.1,N/A,Snow,Light Snow,140,2013-01-25 16:35:00
11:55 AM,19.9,17.6,91,30.00,0.5,SE,8.1,-,N/A,Snow,Light Snow,130,2013-01-25 16:55:00
12:16 PM,19.9,17.6,91,29.98,0.8,SE,6.9,16.1,N/A,Snow,Light Snow,130,2013-01-25 17:16:00
12:35 PM,20.7,18.5,91,29.98,1.0,SSE,6.9,-,N/A,Snow,Light Snow,150,2013-01-25 17:35:00
12:55 PM,21.0,18.5,90,29.96,0.8,SE,11.5,-,N/A,Snow,Light Snow,140,2013-01-25 17:55:00
1:16 PM,21.0,18.5,90,29.95,1.2,SSE,8.1,-,N/A,Snow,Light Snow,150,2013-01-25 18:16:00
1:35 PM,21.2,18.5,89,29.93,1.8,SSE,6.9,-,N/A,Snow,Light Snow,160,2013-01-25 18:35:00
2:16 PM,21.0,19.0,92,29.92,0.5,SSE,6.9,-,N/A,Snow,Snow,150,2013-01-25 19:16:00
2:35 PM,21.2,19.2,92,29.92,0.5,SE,5.8,-,N/A,Snow,Light Snow,130,2013-01-25 19:35:00
2:55 PM,21.2,19.4,93,29.91,0.8,SE,8.1,-,N/A,Snow,Light Snow,140,2013-01-25 19:55:00
3:16 PM,21.4,19.4,92,29.91,1.0,SE,5.8,-,N/A,Snow,Light Snow,130,2013-01-25 20:16:00
3:35 PM,21.2,19.4,93,29.91,1.2,SE,4.6,-,N/A,Snow,Light Snow,140,2013-01-25 20:35:00
3:56 PM,21.7,19.2,90,29.91,1.2,SSE,6.9,-,N/A,Snow,Light Snow,150,2013-01-25 20:56:00
4:15 PM,21.6,19.2,91,29.92,1.0,South,3.5,-,N/A,Snow,Light Snow,170,2013-01-25 21:15:00
4:35 PM,21.2,19.2,92,29.92,1.0,SW,4.6,-,N/A,Snow,Light Snow,230,2013-01-25 21:35:00
4:56 PM,21.2,19.4,93,29.92,0.5,Calm,Calm,-,N/A,Snow,Snow,0,2013-01-25 21:56:00
5:15 PM,21.2,19.4,93,29.92,0.8,South,5.8,-,N/A,Snow,Light Snow,170,2013-01-25 22:15:00
5:35 PM,21.2,19.4,93,29.93,0.8,Calm,Calm,-,N/A,Snow,Light Snow,0,2013-01-25 22:35:00
5:56 PM,21.2,19.4,93,29.94,1.2,Calm,Calm,-,N/A,Snow,Light Snow,0,2013-01-25 22:56:00
6:15 PM,21.2,19.4,93,29.94,1.0,Calm,Calm,-,N/A,Snow,Snow,0,2013-01-25 23:15:00
6:35 PM,21.7,20.3,94,29.95,1.2,Calm,Calm,-,N/A,Snow,Light Snow,0,2013-01-25 23:35:00
6:56 PM,21.0,19.4,93,29.95,1.0,Calm,Calm,-,N/A,Snow,Snow,0,2013-01-25 23:56:00
7:15 PM,20.7,19.0,93,29.95,1.5,Calm,Calm,-,N/A,Snow,Light Snow,0,2013-01-26 00:15:00
7:36 PM,20.3,18.9,94,29.95,1.2,Calm,Calm,-,N/A,Snow,Light Snow,0,2013-01-26 00:36:00
7:55 PM,20.3,18.9,94,29.95,1.8,Calm,Calm,-,N/A,Snow,Light Snow,0,2013-01-26 00:55:00
8:15 PM,20.3,19.0,95,29.95,2.0,Calm,Calm,-,N/A,Snow,Light Snow,0,2013-01-26 01:15:00
8:36 PM,20.3,19.0,95,29.95,5.0,Calm,Calm,-,N/A,Snow,Light Snow,0,2013-01-26 01:36:00
8:55 PM,20.3,18.9,94,29.95,3.0,Calm,Calm,-,N/A,Snow,Light Snow,0,2013-01-26 01:55:00
9:15 PM,21.0,19.4,93,29.96,1.8,Calm,Calm,-,N/A,Snow,Light Snow,0,2013-01-26 02:15:00
9:36 PM,21.6,19.9,93,29.96,1.5,Calm,Calm,-,N/A,Snow,Light Snow,0,2013-01-26 02:36:00
9:55 PM,21.0,18.9,91,29.97,1.2,NW,4.6,-,N/A,Snow,Light Snow,310,2013-01-26 02:55:00
10:16 PM,21.0,18.3,89,29.98,7.0,WNW,4.6,-,N/A,Snow,Light Snow,300,2013-01-26 03:16:00
10:35 PM,20.8,17.6,87,29.98,10.0,WNW,5.8,-,N/A,,Overcast,290,2013-01-26 03:35:00
10:55 PM,20.7,17.4,87,29.98,10.0,WNW,4.6,-,N/A,,Overcast,300,2013-01-26 03:55:00
11:16 PM,20.7,16.7,85,29.99,10.0,WNW,4.6,-,N/A,,Overcast,300,2013-01-26 04:16:00
11:35 PM,20.7,16.7,85,30.00,10.0,NW,9.2,-,N/A,,Overcast,310,2013-01-26 04:35:00
11:55 PM,20.5,16.7,85,30.00,10.0,WNW,6.9,-,N/A,,Overcast,300,2013-01-26 04:55:00